Location: Delia
(51.6321°N, 112.3740°W)
Time: 20:26:57
(UTC+00:00)

Envisat - Pass Details

Date: 03 December 2021
Orbit: 764 x 766 km, 98.2° (Epoch: 26 January)

Event Time Altitude Azimuth Distance (km) Brightness Sun altitude
Rises 12:47:42 0° 14° (NNE) 3,248 6.3 -22.0°
Reaches altitude 10° 12:50:01 10° 14° (NNE) 2,317 5.5 -21.7°
Maximum altitude 12:55:09 87° 286° (WNW) 775 2.9 -20.9°
Drops below altitude 10° 13:00:14 10° 198° (SSW) 2,299 5.4 -20.1°
Sets 13:02:31 0° 198° (SSW) 3,220 6.2 -19.8°
